CW2597 Weather Reports


time (UTC)temp
F
wind
direction
speed
knots
gust
knots
rain 1hr
in
rain 24hr
in
rain mn
in
humidity
%
barometer
mb
20260505153205 54 16 0.0 0.0 0.00 0.56 0.24 86 1009.0
20260505152705 54 21 0.0 0.0 0.00 0.56 0.24 86 1009.1
20260505152510 54 345 0.0 0.0 0.00 0.24 0.24 86 1008.0
20260505152204 54 12 0.0 0.0 0.00 0.56 0.24 86 1009.1
20260505151705 54 352 0.0 0.0 0.00 0.56 0.24 86 1009.2
20260505151205 54 356 0.0 0.0 0.00 0.56 0.24 86 1009.2
20260505150705 54 354 0.0 0.0 0.00 0.56 0.24 86 1009.3
20260505150510 54 25 0.0 0.0 0.00 0.24 0.24 87 1008.3
20260505150205 54 350 0.0 0.0 0.00 0.56 0.24 87 1009.3
20260505140510 53 9 0.0 0.0 0.00 0.24 0.24 89 1008.6
20260505140205 53 340 0.0 0.0 0.00 0.57 0.24 90 1009.7
20260505130204 51 271 0.0 0.0 0.00 0.57 0.24 91 1010.0
20260505124704 51 292 0.0 0.0 0.00 0.57 0.24 90 1010.1
20260505124510 51 14 0.0 0.0 0.00 0.24 0.24 90 1009.0
20260505124204 51 331 0.0 0.0 0.00 0.57 0.24 91 1010.1
20260505123705 51 358 0.0 0.0 0.00 0.57 0.24 91 1010.1
20260505123510 51 23 0.0 0.0 0.00 0.24 0.24 91 1009.0
20260505123204 51 340 0.0 0.0 0.00 0.57 0.24 91 1010.1
20260505122705 51 28 0.0 0.0 0.00 0.57 0.24 90 1010.1
20260505122205 51 6 0.0 0.0 0.00 0.57 0.24 90 1010.1
20260505121704 51 358 0.0 0.0 0.00 0.57 0.24 90 1010.2
20260505121510 51 345 0.0 0.0 0.00 0.24 0.24 90 1009.1
20260505121204 50 350 0.0 0.0 0.00 0.57 0.24 90 1010.2
20260505120705 50 26 0.0 0.0 0.00 0.57 0.24 89 1010.2
20260505120510 50 231 0.0 0.0 0.00 0.24 0.24 89 1009.1
20260505120204 51 341 0.0 0.0 0.00 0.57 0.24 89 1010.3
20260505115704 51 252 0.0 0.0 0.00 0.57 0.24 90 1010.3
20260505115510 51 359 0.0 0.0 0.00 0.24 0.24 89 1009.3
20260505115204 50 55 0.0 0.0 0.00 0.57 0.24 89 1010.3
20260505114705 50 357 0.0 0.0 0.00 0.57 0.24 89 1010.3
20260505114204 50 358 0.0 0.0 0.00 0.57 0.24 88 1010.3
20260505113704 50 296 0.0 0.0 0.00 0.57 0.24 88 1010.4
20260505113510 50 20 0.0 0.0 0.00 0.24 0.24 88 1009.4
20260505113204 50 21 0.0 0.0 0.00 0.57 0.24 88 1010.3
20260505112704 50 14 0.0 0.0 0.00 0.57 0.24 88 1010.3
20260505112510 50 340 0.0 0.0 0.00 0.24 0.24 88 1009.3
20260505112205 50 355 0.0 0.0 0.00 0.57 0.24 87 1010.4
20260505111510 50 358 0.0 0.0 0.00 0.24 0.24 87 1009.4
20260505111205 50 15 0.0 0.0 0.00 0.57 0.24 87 1010.4
20260505110704 50 42 0.0 0.0 0.00 0.57 0.24 87 1010.5
20260505102204 50 0 0.0 0.0 0.00 0.63 0.24 85 1010.7
20260505101704 50 354 0.0 0.0 0.00 0.63 0.24 85 1010.7
20260505101510 50 340 0.0 0.0 0.00 0.24 0.24 86 1009.7
20260505101204 50 357 0.0 0.0 0.00 0.63 0.24 86 1010.7
20260505100704 50 336 0.0 0.0 0.00 0.63 0.24 86 1010.7
20260505100204 50 15 0.0 0.0 0.00 0.63 0.24 87 1010.6
20260505095512 50 358 0.0 0.0 0.00 0.24 0.24 87 1009.6
20260505094512 49 294 0.0 0.0 0.00 0.24 0.24 88 1009.7
20260505093704 49 16 0.0 0.0 0.00 0.63 0.24 87 1010.8
20260505093512 49 10 0.0 0.0 0.00 0.24 0.24 87 1009.7
20260505093204 49 359 0.0 0.0 0.00 0.63 0.24 87 1010.8
20260505092704 49 357 0.0 0.0 0.00 0.63 0.24 87 1010.7
20260505092512 49 24 0.0 0.0 0.00 0.24 0.24 87 1009.7
20260505092204 49 336 0.0 0.0 0.00 0.63 0.24 88 1010.7
20260505091704 49 13 0.0 0.0 0.00 0.63 0.24 88 1010.8
20260505091515 49 331 0.0 0.0 0.00 0.24 0.24 88 1009.7
20260505091204 49 351 0.0 0.0 0.00 0.63 0.24 88 1010.8
20260505090704 49 9 0.0 0.0 0.00 0.63 0.24 88 1010.8
20260505090204 49 319 0.0 0.0 0.01 0.63 0.24 88 1010.9
20260505085704 49 4 0.0 0.0 0.01 0.63 0.24 88 1010.9
20260505085512 49 7 0.0 0.0 0.01 0.24 0.24 88 1009.9
20260505085204 48 358 0.0 0.0 0.01 0.63 0.24 88 1010.9
20260505084204 48 7 0.0 0.0 0.01 0.63 0.24 89 1010.9
20260505083704 48 359 0.0 0.0 0.01 0.63 0.24 89 1011.1
20260505083512 48 258 0.0 0.0 0.01 0.24 0.24 89 1010.0
20260505083204 48 297 0.0 0.0 0.01 0.63 0.24 90 1011.1
20260505082704 48 350 0.0 0.0 0.01 0.63 0.24 90 1011.0
20260505082512 48 15 0.0 0.0 0.01 0.24 0.24 90 1009.9
20260505082204 48 0 0.0 0.0 0.01 0.63 0.24 90 1011.0
20260505081704 48 8 0.0 0.0 0.01 0.63 0.24 90 1011.0
20260505081512 48 345 0.0 0.0 0.01 0.24 0.24 90 1009.9
20260505081204 48 5 0.0 0.0 0.01 0.63 0.24 91 1011.0
20260505080704 48 44 0.0 0.0 0.01 0.63 0.24 90 1010.9
20260505080512 48 67 0.0 0.0 0.01 0.24 0.24 90 1009.8
20260505080205 48 1 0.0 0.0 0.00 0.62 0.24 90 1010.9
20260505075704 48 314 0.0 0.0 0.00 0.62 0.24 90 1010.8
20260505075204 48 296 0.0 0.0 0.00 0.62 0.24 91 1010.8
20260505074704 48 349 0.0 0.0 0.00 0.62 0.24 91 1010.9
20260505074512 48 345 0.0 0.0 0.00 0.24 0.24 91 1009.8
20260505074204 48 326 0.0 0.0 0.00 0.62 0.24 91 1011.0
20260505073512 48 308 0.0 0.0 0.00 0.24 0.24 92 1010.0
20260505072512 48 308 0.0 0.0 0.00 0.24 0.24 91 1010.1
20260505072204 48 329 0.0 0.0 0.00 0.62 0.24 91 1011.2
20260505071704 47 25 0.0 0.0 0.00 0.62 0.24 91 1011.1
20260505071204 47 345 0.0 0.9 0.00 0.62 0.24 91 1011.1
20260505070704 48 26 0.0 1.7 0.00 0.62 0.24 92 1011.0
20260505070512 48 65 0.0 1.7 0.00 0.24 0.24 92 1010.0
20260505070203 48 345 0.0 0.9 0.00 0.62 0.24 92 1011.0
20260505065704 48 35 0.0 0.0 0.00 0.62 0.24 92 1010.9
20260505065511 48 17 0.0 0.0 0.00 0.24 0.24 92 1009.8
20260505065204 48 356 0.0 0.0 0.00 0.62 0.24 92 1010.8
20260505064704 48 358 0.0 0.0 0.00 0.62 0.24 93 1010.8
20260505064512 48 355 0.0 0.0 0.00 0.24 0.24 93 1009.8
20260505064204 48 352 0.0 0.0 0.00 0.62 0.24 92 1010.9
20260505063704 48 7 0.0 0.0 0.01 0.62 0.24 93 1010.9
20260505063511 48 230 0.0 0.0 0.01 0.24 0.24 93 1009.8
20260505063204 48 302 0.0 0.0 0.01 0.62 0.24 93 1010.9
20260505062204 48 352 0.0 0.0 0.01 0.62 0.24 93 1011.0
20260505061703 48 336 0.0 0.0 0.01 0.62 0.24 93 1011.0
20260505061511 48 48 0.0 0.0 0.01 0.24 0.24 93 1009.8
20260505061204 48 350 0.0 0.0 0.01 0.62 0.24 92 1010.9
20260505060704 48 5 0.0 0.0 0.02 0.62 0.24 93 1010.8
20260505060512 48 278 0.0 0.0 0.02 0.24 0.24 93 1009.8
20260505055704 48 9 0.0 0.0 0.02 0.62 0.24 93 1010.9
20260505055512 48 316 0.0 0.0 0.02 0.24 0.24 92 1009.9
20260505055204 48 9 0.0 0.0 0.02 0.62 0.24 92 1010.8
20260505054512 48 282 0.0 0.0 0.03 0.24 0.24 93 1009.9
20260505054204 47 9 0.0 0.0 0.03 0.62 0.24 92 1010.9
20260505053704 47 4 0.0 0.0 0.02 0.61 0.23 92 1010.9
20260505053511 47 5 0.0 0.0 0.03 0.23 0.23 92 1009.7
20260505053205 47 6 0.0 0.0 0.03 0.61 0.23 93 1010.9
20260505052704 47 22 0.0 0.0 0.03 0.61 0.23 93 1010.9
20260505052511 47 350 0.0 0.0 0.03 0.23 0.23 93 1009.7
20260505052204 47 357 0.0 0.0 0.03 0.61 0.23 92 1010.9
20260505051704 47 9 0.0 0.0 0.04 0.61 0.23 92 1010.8
20260505051511 47 9 0.0 0.0 0.04 0.23 0.23 92 1009.7
20260505050706 47 347 0.0 0.0 0.03 0.61 0.22 92 1010.9
20260505050512 47 5 0.0 0.0 0.03 0.22 0.22 93 1009.7
20260505050205 47 349 0.0 0.0 0.04 0.61 0.22 92 1010.8
20260505041706 48 3 0.0 0.0 0.02 0.57 0.19 93 1010.8
20260505041511 48 359 0.0 0.0 0.03 0.19 0.19 92 1009.8
20260505041206 48 17 0.0 0.0 0.03 0.57 0.19 92 1010.8
20260505040705 48 350 0.0 0.0 0.03 0.57 0.19 92 1010.8
20260505040512 48 350 0.0 0.0 0.04 0.19 0.19 92 1009.8
20260505040205 48 354 0.0 0.0 0.03 0.57 0.18 92 1010.8
20260505035705 48 350 0.0 0.0 0.04 0.57 0.18 93 1010.8
20260505035511 48 318 0.0 0.0 0.04 0.18 0.18 92 1009.7
20260505035205 48 1 0.0 0.0 0.04 0.57 0.18 93 1010.7
20260505034511 48 354 0.0 0.0 0.05 0.18 0.18 93 1009.8
20260505034206 48 345 0.0 0.0 0.05 0.57 0.18 93 1010.8
20260505033706 48 332 0.0 0.0 0.06 0.57 0.18 93 1010.8
20260505033512 48 350 0.0 0.0 0.06 0.18 0.18 93 1009.8
20260505033206 48 0 0.0 0.0 0.06 0.56 0.17 93 1010.8
20260505032511 48 7 0.0 0.0 0.06 0.17 0.17 93 1009.8
20260505031705 48 330 0.0 0.0 0.06 0.55 0.17 92 1011.0
20260505031511 48 336 0.0 0.0 0.05 0.16 0.16 92 1009.9
20260505031206 48 310 0.0 0.0 0.05 0.54 0.16 92 1011.0
20260505030705 48 337 0.0 0.0 0.05 0.54 0.16 92 1011.0
20260505030512 48 320 0.0 0.0 0.04 0.15 0.15 92 1010.0
20260505025511 48 350 0.0 0.0 0.04 0.14 0.14 92 1009.9
20260505025205 48 344 0.0 0.0 0.04 0.53 0.14 92 1010.9
20260505024705 49 357 0.0 0.0 0.03 0.52 0.13 93 1011.0
20260505024511 49 15 0.0 0.0 0.03 0.13 0.13 93 1009.9
20260505024206 49 338 0.0 0.0 0.03 0.52 0.13 93 1011.0
20260505023705 49 348 0.0 0.0 0.02 0.51 0.13 93 1011.0
20260505023512 49 28 0.0 0.0 0.03 0.13 0.13 93 1009.9
20260505023205 49 358 0.0 0.0 0.02 0.50 0.12 93 1010.9
20260505022706 49 352 0.0 0.0 0.02 0.50 0.12 92 1011.0
20260505022511 49 30 0.0 0.0 0.02 0.12 0.12 92 1009.9
20260505022206 49 319 0.0 0.9 0.02 0.50 0.12 92 1010.9
20260505021705 49 320 0.0 0.0 0.02 0.50 0.11 92 1011.0
20260505021511 49 46 0.0 0.0 0.02 0.11 0.11 92 1009.9
20260505021205 49 355 0.0 0.0 0.02 0.50 0.11 93 1010.9
20260505020706 49 4 0.0 0.0 0.02 0.50 0.11 93 1011.0
20260505020512 49 19 0.0 0.0 0.02 0.11 0.11 93 1009.9
20260505020206 49 11 0.0 0.0 0.02 0.50 0.11 93 1011.0
20260505015705 49 339 0.0 0.0 0.02 0.49 0.10 93 1011.0
20260505015511 49 335 0.0 0.0 0.02 0.10 0.10 93 1009.9
20260505015205 49 19 0.0 0.0 0.02 0.49 0.10 93 1011.0
20260505014706 49 9 0.0 0.0 0.02 0.49 0.10 92 1011.1
20260505013511 50 340 0.0 0.0 0.01 0.09 0.09 92 1010.1
20260505013205 50 340 0.0 0.0 0.01 0.48 0.09 92 1011.1
20260505012705 50 316 0.0 0.0 0.01 0.48 0.09 92 1011.1
20260505012512 50 301 0.0 0.0 0.01 0.09 0.09 93 1010.1
20260505011709 50 281 0.0 0.0 0.01 0.48 0.09 92 1011.2
20260505011511 50 291 0.0 0.0 0.01 0.09 0.09 92 1010.2
20260505010706 50 4 0.0 0.0 0.01 0.48 0.09 92 1011.2
20260505010206 50 355 0.0 0.0 0.02 0.48 0.09 92 1011.2
20260505005705 50 351 0.0 0.0 0.01 0.47 0.09 92 1011.3
20260505005206 50 307 0.0 0.0 0.01 0.47 0.09 92 1011.3
20260505004705 50 0 0.0 0.0 0.02 0.47 0.09 92 1011.3
20260505004511 50 354 0.0 0.0 0.02 0.09 0.09 92 1010.3
20260505004205 50 330 0.0 0.0 0.02 0.47 0.09 92 1011.3
20260505003705 50 8 0.0 0.0 0.02 0.47 0.09 92 1011.3
20260505003512 51 9 0.0 0.0 0.02 0.09 0.09 92 1010.3
20260505003205 51 25 0.0 0.0 0.02 0.47 0.09 92 1011.4
20260505002706 51 1 0.0 0.0 0.02 0.47 0.09 92 1011.4
20260505002511 51 269 0.0 0.0 0.03 0.09 0.09 92 1010.4
20260505002205 51 299 0.0 0.0 0.03 0.47 0.09 92 1011.4
20260505001705 51 9 0.0 0.0 0.03 0.47 0.09 92 1011.4
20260505001511 51 358 0.0 0.0 0.03 0.09 0.09 92 1010.5
20260505001205 51 295 0.0 0.0 0.03 0.47 0.09 92 1011.5
20260505000706 51 6 0.0 0.0 0.04 0.47 0.09 92 1011.5
20260505000205 51 10 0.0 0.0 0.04 0.46 0.08 92 1011.6
20260504235705 51 347 0.0 0.0 0.04 0.46 0.08 92 1011.6
20260504235205 51 312 0.0 0.0 0.05 0.46 0.08 92 1011.6
20260504234705 51 327 0.0 0.0 0.04 0.46 0.07 92 1011.6
20260504234511 51 323 0.0 0.0 0.04 0.07 0.07 92 1010.5
20260504234205 52 35 0.0 0.0 0.05 0.46 0.07 92 1011.6
20260504233511 52 340 0.0 0.0 0.04 0.06 0.06 92 1010.5
20260504233205 52 7 0.0 0.0 0.05 0.45 0.06 92 1011.6
20260504232707 52 1 0.0 0.0 0.05 0.45 0.06 92 1011.6
20260504232511 52 356 0.0 0.0 0.04 0.06 0.06 91 1010.6
20260504232205 52 336 0.0 0.0 0.05 0.44 0.06 91 1011.6
20260504231705 52 311 0.0 0.0 0.05 0.44 0.06 92 1011.6
20260504231511 52 311 0.0 0.0 0.05 0.06 0.06 92 1010.6
20260504231205 52 310 0.0 0.0 0.05 0.44 0.06 92 1011.7
20260504230511 52 310 0.0 0.0 0.05 0.05 0.05 91 1010.7
20260504225511 53 350 0.0 0.0 0.04 0.04 0.04 91 1010.7
20260504224705 53 6 0.0 0.0 0.05 0.42 0.03 91 1011.8
20260504224511 53 312 0.0 0.0 0.03 0.03 0.03 91 1010.7
20260504224206 53 318 0.0 0.0 0.05 0.41 0.02 91 1011.8
20260504223705 53 357 0.0 0.0 0.07 0.41 0.02 91 1011.8
20260504223511 53 313 0.0 0.0 0.02 0.02 0.02 91 1010.7
20260504223205 53 1 0.0 0.0 0.07 0.40 0.02 91 1011.8
20260504222705 54 9 0.0 1.7 0.08 0.40 0.02 91 1011.9
20260504222511 54 32 0.0 1.7 0.02 0.02 0.02 91 1010.8
20260504222205 54 356 0.0 0.0 0.08 0.39 0.01 91 1012.0
20260504221706 54 7 0.0 0.0 0.09 0.39 0.01 91 1012.0
20260504221511 54 6 0.0 0.0 0.01 0.01 0.01 91 1010.9
20260504221205 54 4 0.0 0.0 0.09 0.39 0.01 91 1012.0
20260504220705 54 351 0.0 0.9 0.09 0.39 0.00 91 1012.0
20260504220206 54 327 0.0 1.7 0.09 0.39 0.00 91 1012.1
20260504215705 55 15 0.0 0.0 0.09 0.39 0.39 91 1012.1
20260504215511 55 15 0.0 0.0 0.08 0.38 0.38 91 1011.1
20260504215206 55 15 0.0 0.0 0.08 0.38 0.38 91 1012.3
20260504214705 55 119 0.0 0.0 0.08 0.38 0.38 91 1012.3
20260504214511 55 48 0.0 0.0 0.07 0.37 0.37 91 1011.3
20260504214205 55 56 0.0 0.9 0.07 0.37 0.37 91 1012.4
20260504213705 55 354 0.0 0.0 0.05 0.35 0.35 91 1012.3
20260504213511 55 354 0.0 0.0 0.05 0.34 0.34 91 1011.3
20260504213206 55 354 0.0 0.0 0.04 0.33 0.33 91 1012.4
20260504212705 55 354 0.0 0.0 0.03 0.32 0.32 91 1012.4
20260504212511 55 354 0.0 0.9 0.03 0.32 0.32 90 1011.3
20260504212206 55 357 0.0 0.0 0.02 0.31 0.31 90 1012.3
20260504211705 55 0 0.0 0.0 0.02 0.31 0.31 91 1012.4
20260504211511 55 360 0.0 0.0 0.02 0.31 0.31 91 1011.3
20260504211205 55 357 0.0 0.0 0.01 0.30 0.30 91 1012.4
20260504210706 55 13 0.0 0.0 0.01 0.30 0.30 90 1012.3
20260504210511 55 340 0.0 0.0 0.01 0.30 0.30 90 1011.3
20260504210205 55 324 0.0 0.0 0.01 0.30 0.30 90 1012.3
20260504205705 56 304 0.0 0.0 0.01 0.30 0.30 90 1012.2
20260504205205 56 303 0.0 0.0 0.01 0.30 0.30 90 1012.3
20260504204705 56 338 0.0 0.9 0.02 0.30 0.30 90 1012.1
20260504204511 56 2 0.0 0.9 0.02 0.30 0.30 90 1011.1
20260504203705 56 354 0.0 1.7 0.02 0.30 0.30 90 1012.1
20260504203205 56 341 0.0 0.0 0.02 0.29 0.29 90 1012.1
20260504202705 57 0 0.0 0.0 0.03 0.29 0.29 90 1012.1
20260504202511 57 5 0.0 0.0 0.04 0.29 0.29 90 1011.0
20260504202205 57 347 0.0 0.9 0.04 0.29 0.29 90 1012.1
20260504201705 57 347 0.0 0.9 0.05 0.29 0.29 90 1012.1
20260504201511 57 299 0.0 0.9 0.06 0.29 0.29 90 1011.1
20260504201206 57 298 0.0 0.9 0.07 0.29 0.29 90 1012.1
20260504200705 57 287 0.0 0.9 0.09 0.29 0.29 90 1012.0
20260504200511 58 312 0.0 0.9 0.10 0.29 0.29 90 1011.0
20260504200205 58 6 0.0 0.0 0.13 0.29 0.29 90 1011.9
20260504195705 58 340 0.0 0.0 0.15 0.29 0.29 90 1011.8
20260504195510 58 360 0.0 0.0 0.15 0.29 0.29 89 1010.8
20260504195205 58 354 0.0 0.0 0.17 0.29 0.29 90 1011.8
20260504194705 58 359 0.0 0.0 0.18 0.28 0.28 90 1011.9
20260504194510 58 356 0.0 0.0 0.19 0.28 0.28 89 1010.9
20260504194205 58 7 0.0 0.0 0.19 0.28 0.28 89 1011.9
20260504193705 58 9 0.0 0.9 0.18 0.28 0.28 89 1012.0
20260504193511 58 331 0.0 0.9 0.17 0.27 0.27 89 1010.9
20260504193205 58 348 0.0 1.7 0.17 0.27 0.27 89 1012.0
20260504192706 58 7 0.0 0.0 0.17 0.26 0.26 89 1011.9
20260504192510 58 16 0.0 0.0 0.17 0.25 0.25 86 1010.8
20260504192205 58 354 0.0 0.0 0.18 0.25 0.25 88 1011.9
20260504191705 58 356 0.0 0.9 0.17 0.24 0.24 88 1011.9
20260504191511 59 21 0.0 0.9 0.17 0.24 0.24 87 1010.9
20260504191205 59 7 0.0 1.7 0.15 0.22 0.22 87 1011.9
20260504190510 59 84 0.0 0.0 0.12 0.19 0.19 86 1010.9
20260504190205 59 7 0.0 0.0 0.09 0.17 0.17 86 1011.9
20260504185705 60 332 0.0 0.0 0.07 0.14 0.14 85 1011.8
20260504185511 60 18 0.0 0.0 0.07 0.14 0.14 85 1010.8
20260504185205 60 345 0.0 0.0 0.06 0.13 0.13 85 1011.8
20260504184705 61 26 0.0 0.0 0.03 0.10 0.10 84 1011.7
20260504184510 61 340 0.0 0.0 0.02 0.09 0.09 84 1010.7
20260504183705 61 22 0.0 0.0 0.02 0.09 0.09 83 1011.6
20260504183205 62 348 0.0 0.0 0.02 0.09 0.09 81 1011.5
20260504182705 62 354 0.0 0.0 0.02 0.09 0.09 80 1011.5
20260504182510 63 350 0.0 0.9 0.01 0.08 0.08 79 1010.6
20260504182205 62 5 0.0 0.9 0.00 0.07 0.07 78 1011.5
20260504181704 63 13 0.0 0.0 0.00 0.07 0.07 78 1011.4
20260504181510 63 360 0.0 0.0 0.00 0.07 0.07 78 1010.5
20260504181204 63 36 0.0 0.0 0.00 0.07 0.07 78 1011.4
20260504180705 63 356 0.0 0.0 0.00 0.07 0.07 77 1011.4
20260504180510 63 71 0.0 0.0 0.00 0.07 0.07 77 1010.4
20260504180205 63 352 0.0 1.7 0.00 0.07 0.07 77 1011.4
20260504175705 63 358 0.0 0.0 0.00 0.07 0.07 77 1011.3
20260504175511 64 350 0.0 0.0 0.00 0.07 0.07 77 1010.4
20260504175205 64 353 0.0 0.0 0.00 0.07 0.07 77 1011.3
20260504174705 64 353 0.0 0.0 0.00 0.07 0.07 77 1011.3
20260504174511 64 358 0.0 0.0 0.00 0.07 0.07 77 1010.4
20260504174205 64 7 0.0 0.0 0.00 0.07 0.07 77 1011.2
20260504173705 64 343 0.0 0.0 0.00 0.07 0.07 77 1011.1
20260504173510 64 15 0.0 0.0 0.00 0.07 0.07 77 1010.3
20260504173205 64 350 0.0 0.0 0.00 0.07 0.07 77 1011.2
20260504172704 64 0 0.0 0.0 0.00 0.07 0.07 76 1011.2
20260504172510 64 21 0.0 0.0 0.00 0.07 0.07 76 1010.3
20260504171705 65 25 0.0 0.0 0.00 0.07 0.07 75 1011.1
20260504171510 65 283 0.0 0.0 0.00 0.07 0.07 75 1010.2
20260504171205 66 10 0.0 0.0 0.00 0.07 0.07 75 1011.0
20260504170705 66 351 0.0 0.0 0.00 0.07 0.07 74 1011.0
20260504170510 66 350 0.0 0.0 0.00 0.07 0.07 74 1010.1
20260504170205 66 2 0.0 0.0 0.00 0.07 0.07 73 1011.0
20260504160205 66 304 0.0 0.0 0.00 0.07 0.07 72 1011.1